Location: Alessandria
(44.9000°N, 8.6170°E)
Time: 03:23:47
(UTC+02:00)

ISS - Pass Details

Date: 13 May 2021
Orbit: 417 x 422 km, 51.6° (Epoch: 14 June)

Event Time Altitude Azimuth Distance (km) Brightness Sun altitude
Exits shadow 03:37:23 - 300° (WNW) 2,226 -0.1 -19.6°
Reaches altitude 10° 03:39:15 10° 309° (NW) 1,508 -0.9 -19.4°
Maximum altitude 03:42:21 33° 15° (NNE) 733 -1.9 -19.1°
Drops below altitude 10° 03:45:28 10° 82° (E) 1,507 -0.4 -18.8°
Sets 03:47:42 0° 92° (E) 2,370 0.6 -18.5°
